Date String (YYYY-MM-DD hh:mm:ss) UTC,Instrument flags,absolute air pressure of the measurement (hPa),sample flow rate (lpm),inlet stack bypass flow (lpm),air temperature of the measurement (°C),ambient temperature measured by the external sensor (°C),aerosol sample conditioner tube jacket temperature (°C),OPC LED temperature (°C),internal box temperature (°C),relative humidity of the measurement (%),span deviation,mass concentration of particles derived from Lorenz-Mie calculation of OPC scattering (μg/m³),mass concentration of particles derived from Lorenz-Mie calculation of OPC scattering (μg/m³),mass concentration of particles derived from Lorenz-Mie calculation of OPC scattering (μg/m³)
DateTimeUTC,F1_M11,P_M11,Q1_M11,Q2_M11,T1_M11,T2_M11,T3_M11,T4_M11,T5_M11,U1_M11,ZSPAN_M11,X2_M11,X0_M11,X1_M11
2024-01-10 10:00:00,SystemResetWarning,0813.1,5.00,000.00,018.6,017.1,000.0,027.2,020.0,9.4,0000.0,0000.33,0000.70,0000.17
2024-01-10 10:01:00,SystemResetWarning,0813.1,4.99,000.00,018.6,017.1,000.0,027.2,020.1,9.4,0000.0,0000.33,0000.89,0000.16
2024-01-10 10:02:00,SystemResetWarning,0813.1,5.01,000.00,018.7,017.8,000.0,027.2,020.4,9.4,0000.0,0000.33,0000.89,0000.16
2024-01-10 10:03:00,SystemResetWarning,0813.1,5.00,000.00,018.8,018.6,000.0,027.1,020.7,9.3,0000.0,0000.32,0000.89,0000.16
2024-01-10 10:04:00,SystemResetWarning,0813.1,4.98,000.00,018.9,018.8,000.0,027.2,020.5,9.3,0000.0,0000.33,0000.89,0000.17
2024-01-10 10:05:00,SystemResetWarning,0813.0,5.00,000.00,018.9,018.7,000.0,027.2,020.3,9.3,0000.0,0000.34,0000.92,0000.17
2024-01-10 10:06:00,SystemResetWarning,0813.1,5.00,000.00,018.9,018.5,000.0,027.1,020.2,9.4,0000.0,0000.34,0000.92,0000.17
2024-01-10 10:07:00,SystemResetWarning,0813.1,5.00,000.00,018.8,018.3,000.0,027.1,020.1,9.4,0000.0,0000.33,0000.89,0000.18
2024-01-10 10:08:00,SystemResetWarning,0813.2,4.99,000.00,018.8,018.1,000.0,027.1,020.0,9.5,0000.0,0000.33,0000.89,0000.17
2024-01-10 10:09:00,SystemResetWarning,0813.2,5.00,000.00,018.8,018.0,000.0,027.1,020.0,9.5,0000.0,0000.33,0000.91,0000.17
2024-01-10 10:10:00,SystemResetWarning,0813.2,5.00,000.00,018.7,017.9,000.0,027.1,020.0,9.5,0000.0,0000.31,0000.80,0000.16
2024-01-10 10:11:00,SystemResetWarning,0813.2,5.00,000.00,018.7,017.8,000.0,027.2,020.0,9.5,0000.0,0000.31,0000.78,0000.16
2024-01-10 10:12:00,SystemResetWarning,0813.2,5.00,000.00,018.7,017.7,000.0,027.2,020.0,9.5,0000.0,0000.27,0000.57,0000.16
2024-01-10 10:13:00,SystemResetWarning,0813.2,5.00,000.00,018.7,017.6,000.0,027.2,020.0,9.6,0000.0,0000.25,0000.47,0000.16
2024-01-10 10:14:00,SystemResetWarning,0813.2,5.00,000.00,018.7,017.5,000.0,027.2,020.0,9.6,0000.0,0000.25,0000.44,0000.16
2024-01-10 10:15:00,SystemResetWarning,0813.1,5.00,000.00,018.7,017.5,000.0,027.2,020.0,9.6,0000.0,0000.25,0000.53,0000.16
2024-01-10 10:16:00,SystemResetWarning,0813.1,5.00,000.00,018.7,017.4,000.0,027.2,020.0,9.6,0000.0,0000.26,0000.63,0000.16
2024-01-10 10:17:00,SystemResetWarning,0813.0,5.00,000.00,018.7,017.4,000.0,027.2,020.0,9.6,0000.0,0000.27,0000.73,0000.16
2024-01-10 10:18:00,SystemResetWarning,0813.0,5.01,000.00,018.7,017.4,000.0,027.2,020.0,9.6,0000.0,0000.28,0000.75,0000.16
2024-01-10 10:19:00,SystemResetWarning,0813.1,5.00,000.00,018.7,017.4,000.0,027.2,020.0,9.6,0000.0,0000.29,0000.82,0000.16
2024-01-10 10:20:00,SystemResetWarning,0813.0,4.99,000.00,018.7,017.4,000.0,027.2,020.0,9.6,0000.0,0000.30,0000.88,0000.16
2024-01-10 10:21:00,SystemResetWarning,0813.0,5.00,000.00,018.7,017.3,000.0,027.2,020.0,9.6,0000.0,0000.32,0001.03,0000.17
2024-01-10 10:22:00,SystemResetWarning,0813.0,5.00,000.00,018.6,017.3,000.0,027.2,020.0,9.6,0000.0,0000.33,0001.11,0000.16
2024-01-10 10:23:00,SystemResetWarning,0813.0,5.00,000.00,018.6,017.3,000.0,027.2,020.0,9.6,0000.0,0000.34,0001.17,0000.16
2024-01-10 10:24:00,SystemResetWarning,0813.0,5.00,000.00,018.6,017.3,000.0,027.2,020.0,9.6,0000.0,0000.35,0001.21,0000.16
2024-01-10 10:25:00,SystemResetWarning,0813.1,5.00,000.00,018.6,017.3,000.0,027.2,020.0,9.6,0000.0,0000.34,0001.27,0000.16
2024-01-10 10:26:00,SystemResetWarning,0813.2,5.00,000.00,018.6,017.3,000.0,027.2,020.0,9.6,0000.0,0000.34,0001.16,0000.16
2024-01-10 10:27:00,SystemResetWarning,0813.1,5.00,000.00,018.6,017.3,000.0,027.2,020.0,9.6,0000.0,0000.31,0001.03,0000.15
2024-01-10 10:28:00,SystemResetWarning,0813.0,5.00,000.00,018.6,017.3,000.0,027.2,020.0,9.5,0000.0,0000.30,0000.96,0000.15
2024-01-10 10:29:00,SystemResetWarning,0813.1,5.00,000.00,018.6,017.3,000.0,027.2,020.0,9.5,0000.0,0000.30,0000.94,0000.15
2024-01-10 10:30:00,SystemResetWarning,0813.0,5.00,000.00,018.6,017.3,000.0,027.2,020.0,9.5,0000.0,0000.30,0000.90,0000.15
2024-01-10 10:31:00,SystemResetWarning,0813.0,5.00,000.00,018.6,017.3,000.0,027.2,020.0,9.4,0000.0,0000.28,0000.81,0000.16
2024-01-10 10:32:00,SystemResetWarning,0813.0,5.00,000.00,018.6,017.3,000.0,027.2,020.0,9.3,0000.0,0000.28,0000.75,0000.16
2024-01-10 10:33:00,SystemResetWarning,0813.1,4.99,000.00,018.6,017.3,000.0,027.2,020.0,9.4,0000.0,0000.28,0000.71,0000.16
2024-01-10 10:34:00,SystemResetWarning,0813.1,4.99,000.00,018.6,017.3,000.0,027.2,020.0,9.4,0000.0,0000.26,0000.66,0000.16
2024-01-10 10:35:00,SystemResetWarning,0813.1,5.00,000.00,018.6,017.3,000.0,027.2,020.0,9.5,0000.0,0000.29,0000.78,0000.17
2024-01-10 10:36:00,SystemResetWarning,0813.1,5.00,000.00,018.6,017.3,000.0,027.2,020.0,9.5,0000.0,0000.31,0000.76,0000.17
2024-01-10 10:37:00,SystemResetWarning,0813.1,5.00,000.00,018.6,017.3,000.0,027.2,020.0,9.5,0000.0,0000.32,0000.81,0000.17
2024-01-10 10:38:00,SystemResetWarning,0813.1,5.01,000.00,018.6,017.3,000.0,027.2,020.0,9.5,0000.0,0000.35,0000.88,0000.17
2024-01-10 10:39:00,SystemResetWarning,0813.1,5.01,000.00,018.6,017.3,000.0,027.2,020.0,9.5,0000.0,0000.37,0000.91,0000.18
2024-01-10 10:40:00,SystemResetWarning,0813.1,5.00,000.00,018.6,017.3,000.0,027.2,020.0,9.5,0000.0,0000.37,0000.96,0000.19
2024-01-10 10:41:00,SystemResetWarning,0813.1,5.00,000.00,018.6,017.3,000.0,027.2,020.0,9.5,0000.0,0000.37,0000.99,0000.18
2024-01-10 10:42:00,SystemResetWarning,0813.0,5.00,000.00,018.6,017.2,000.0,027.2,020.0,9.5,0000.0,0000.38,0001.03,0000.18
2024-01-10 10:43:00,SystemResetWarning,0813.0,5.00,000.00,018.6,017.2,000.0,027.2,020.0,9.5,0000.0,0000.39,0001.03,0000.19
2024-01-10 10:44:00,SystemResetWarning,0813.0,5.00,000.00,018.6,017.2,000.0,027.2,020.0,9.4,0000.0,0000.41,0001.03,0000.19
2024-01-10 10:45:00,SystemResetWarning,0812.9,5.00,000.00,018.7,017.6,000.0,027.2,020.3,9.4,0000.0,0000.43,0001.05,0000.20
2024-01-10 10:46:00,SystemResetWarning,0813.1,5.00,000.00,018.8,018.5,000.0,027.1,020.7,9.2,0000.0,0000.42,0001.01,0000.20
2024-01-10 10:47:00,SystemResetWarning,0813.2,4.99,000.00,018.9,018.8,000.0,027.1,020.6,9.2,0000.0,0000.40,0000.95,0000.20
2024-01-10 10:48:00,SystemResetWarning,0813.3,4.99,000.00,018.9,018.7,000.0,027.1,020.3,9.4,0000.0,0000.41,0000.97,0000.20
2024-01-10 10:49:00,SystemResetWarning,0813.3,5.00,000.00,018.9,018.4,000.0,027.1,020.1,9.6,0000.0,0000.40,0000.92,0000.21
2024-01-10 10:50:00,SystemResetWarning,0813.2,5.00,000.00,018.8,018.2,000.0,027.1,020.0,9.6,0000.0,0000.38,0000.86,0000.20
2024-01-10 10:51:00,SystemResetWarning,0813.2,5.00,000.00,018.8,018.0,000.0,027.2,020.0,9.8,0000.0,0000.38,0000.82,0000.19
2024-01-10 10:52:00,SystemResetWarning,0813.1,5.00,000.00,018.8,017.8,000.0,027.2,020.0,10.0,0000.0,0000.36,0000.74,0000.19
2024-01-10 10:53:00,SystemResetWarning,0813.2,5.00,000.00,018.7,017.7,000.0,027.2,020.0,10.0,0000.0,0000.34,0000.66,0000.19
2024-01-10 10:54:00,SystemResetWarning,0813.2,5.00,000.00,018.7,017.6,000.0,027.2,020.0,10.0,0000.0,0000.34,0000.68,0000.18
2024-01-10 10:55:00,SystemResetWarning,0813.4,5.01,000.00,018.7,017.5,000.0,027.2,020.0,10.2,0000.0,0000.33,0000.69,0000.17
2024-01-10 10:56:00,SystemResetWarning,0813.5,5.00,000.00,018.7,017.4,000.0,027.2,020.0,10.3,0000.0,0000.36,0000.73,0000.18
2024-01-10 10:57:00,SystemResetWarning,0813.4,4.99,000.00,018.7,017.4,000.0,027.2,020.0,10.4,0000.0,0000.36,0000.72,0000.18
2024-01-10 10:58:00,SystemResetWarning,0813.3,5.00,000.00,018.7,017.3,000.0,027.2,020.0,10.6,0000.0,0000.38,0000.82,0000.18
2024-01-10 10:59:00,SystemResetWarning,0813.4,5.00,000.00,018.7,017.3,000.0,027.2,020.0,10.8,0000.0,0000.43,0000.89,0000.18
